STARLINK-32824, 62817

Orbit data source: Space-Track

STARLINK-32824, 62817 is a payload satellite owned by SpaceX/Seattle (US) in LEO that was launched on Fri, 24 Jan 2025 UTC via an FALCON 9 launch vehicle from the Air Force Western Test Range (AFWTR). Payloads include a variety of satellites, spacecraft, and rockets equipped with specific instruments for various scientific and technological missions. These include communications satellites like Starlink; space stations such as the ISS; scientific satellites like the Hubble; Earth observation satellites from companies like Planet Labs, Umbra, and HawkEye 360; GPS; miniature CubeSats for education and research; and military/defense satellites.

Loading next visibility...
STARLINK-32824 details
Identifier
62817, 2025-018M
Orbit
LEO
Last TLE update9 hours ago
Origin
Flag of USSpaceX/Seattle (US)
ManufacturerSpaceX/Seattle
MissionOperational spacecraft
Bus & MotorSTARLINK V2M, Unknown motor
Mass730 kg wet, ~700 kg dry
Launch date (UTC)
2025-01-24 (3 weeks ago)
Launch vehicle
FALCON 9
Launch site
Air Force Western Test Range (AFWTR)
Object type
Payload
Rocket body
Debris
Shape & HBRUnknown
Radar Cross SectionLarge (>1 m²)

Expand to show TLE details & history

TLE from 9 hours ago
0 STARLINK-32824
1 62817U 25018M   25047.16668981 -.01598602  00000-0 -25371-1 0  9995
2 62817  53.1589 312.5074 0000744  78.2310 280.6419 15.55654833  4824
Epoch: 2025-02-16T04:00Z
Definitive object data (Epoch: 2025-02-16T04:00:01.999Z)
Latitude-0.99585°
Longitude105.35339°
Altitude401.201 km
Speed7.671 km/s
True Right ascension20h 47m 03s
True Declination0° 59' 22"
Sunlit
Object was in daylight at TLE epoch
Visualization TLE readout
Latitude-46.4217°
Longitude-24.13334°
Altitude420.378 km
Speed7.658 km/s
Apparent Right ascension07h 40m 32s
Apparent Declination-65° 19' 28"
Sunlit
Object is in full shadow
Visualization observer readout
Local Sidereal Time15:32:30
Azimuth212.837° SW
Elevation-47.168°
Doppler factor1
Orbital elements
Apogee altitude401.013 km
Perigee altitude400.005 km
Semi-major axis6,778.646 km
Eccentricity0.0000744
Inclination53.1589°
RAAN312.5074°
Arg. of periapsis78.231°
True anomaly280.63352°
Mean anomaly280.6419°
Eccentric anomaly280.63771°
Mean motion3.88892 °/min
BSTAR-0.025371
Orbital period92.57 mins
Loading maneuver chart data...
Loading historical data...
Loading historical data...
Loading historical data...
Loading historical data...
Loading historical data...
Loading historical data...
Loading historical data...

STARLINK-32824 Visibility forecast

Observer location: undefined°, undefined

Span
Click to sort rows by Start time (UTC) header in descending order
Start Az.
Max El. time (UTC)
Max El. Az.
Max El.
End time (UTC)
End Az.
5 mins2025-02-16 19:35:55.505Z186.696° SSW2025-02-16 19:37:55.505Z140.923° SSE24.546°2025-02-16 19:40:55.505Z72.305° E
4 mins2025-02-16 21:12:55.505Z281.235° WNW2025-02-16 21:14:55.505Z343.589° N25.567°2025-02-16 21:16:55.505Z27.235° NE
4 mins2025-02-17 03:41:55.505Z276.854° WNW2025-02-17 03:42:55.505Z248.385° W28.598°2025-02-17 03:45:55.505Z162.669° S
|